Terminal Aerodrome Forecast
Issued by NWS Cleveland, OH

Home | Current Version | Previous Version | Graphics & Text | Print | Product List | Glossary On
Versions: 1 2 3 4 5 6 7 8 9 10 11 12 13 14 15 16 17 18 19 20 21 22 23 24 25 26 27 28 29 30
000
FTUS41 KCLE 212300
TAFMFD
TAF
KMFD 212338Z 2200/2224 35012KT P6SM SCT008 OVC012
      TEMPO 2201/2205 4SM -DZ BR OVC008
     FM221700 35008KT P6SM OVC025
     FM222100 35008KT P6SM BKN035=

USA.gov is the U.S. government's official web portal to all federal, state and local government web resources and services.